Погода в Новых Байдарах

Россия / Курганская область     54°56′26″N   65°51′49″E
темп.,
°C
ветер,
м/с
пор.,
м/с
влажн.,
%
обл.,
%
осадки,
мм/ч
давл.,
гПа
погр.,
м
15 мая, сб
сб1523:00+21ююз47385 0.0 102394
02:00+19юз48425 0.0 1023119
05:00+17зюз495026 0.0 1023135
08:00+23зюз464352 0.7 1022206
11:00+28з44305 0.8 1021917
14:00+30з572394 0.0 10203222
17:00+30зсз67235 0.0 10192787
20:00+25з33396 0.0 101940
16 мая, вс
вс1623:00+22з4741100 0.0 1019107
02:00+19зсз474924 0.0 1019111
05:00+18зсз34575 0.0 101948
08:00+23зсз46479 0.0 1020294
11:00+28зсз673299 0.0 10191078
14:00+31зсз792236 0.0 10192556
17:00+31зсз79225 0.0 10192846
20:00+25з49377 0.0 1018128
17 мая, пн
пн1723:00+22з33345 0.0 101832
02:00+22зсз333650 0.0 101945
05:00+19з334748 0.0 101922
08:00+25з46380 0.0 1020290
11:00+29зсз56270 0.0 10191492
14:00+31з69225 0.0 10183689
17:00+31зсз682311 0.0 10163286
20:00+25сз34383 0.0 101652
18 мая, вт
вт1823:00+21з464335 0.0 101682
02:00+19зсз411445 0.0 1016189
05:00+17зсз4659100 0.0 101683
08:00+22з4653100 0.4 1016223
11:00+27зсз593685 0.4 10152356
14:00+29зсз7929100 0.0 10133528
17:00+27зсз79313 0.0 10122475
20:00+16ссв101578100 0.2 1015399
19 мая, ср
ср1923:00+16ссз47816 0.9 1015158
02:00+13с512901 0.0 1017448
05:00+13ссв71184100 0.0 1019757
08:00+14ссв797099 0.0 1021991
11:00+15св676056 0.0 10231108
14:00+20св56384 0.0 10221495
17:00+21св453399 0.0 10231688
20:00+17св344597 0.0 102367